Hourly Weather Nakuru

Today, 31 October, Saturday

Time Temperature Precipitation Wind Pressure Humidity
00:00 +15°C° 0 mm 2 mps 605 mmHg 89%
01:00 +15°C° 0 mm 2 mps 604 mmHg 89%
02:00 +14°C° 0 mm 2 mps 604 mmHg 90%
03:00 +14°C° 0 mm 2 mps 604 mmHg 91%
04:00 +14°C° 0 mm 2 mps 604 mmHg 92%
05:00 +14°C° 0 mm 2 mps 604 mmHg 93%
06:00 +16°C° 0 mm 2 mps 605 mmHg 87%
07:00 +17°C° 0 mm 2 mps 606 mmHg 81%
08:00 +19°C° 0 mm 2 mps 607 mmHg 73%
09:00 +21°C° 0.2 mm 2 mps 607 mmHg 68%
10:00 +23°C° 0.2 mm 2 mps 607 mmHg 63%
11:00 +24°C° 0.2 mm 2 mps 607 mmHg 58%
12:00 +24°C° 1.2 mm 2 mps 606 mmHg 61%
13:00 +23°C° 1.2 mm 2 mps 605 mmHg 64%
14:00 +23°C° 1.2 mm 2 mps 604 mmHg 67%
15:00 +20°C° 0.7 mm 2 mps 604 mmHg 73%
16:00 +19°C° 0.7 mm 2 mps 604 mmHg 79%
17:00 +18°C° 0.7 mm 2 mps 603 mmHg 84%
18:00 +17°C° 0.1 mm 2 mps 604 mmHg 84%
19:00 +17°C° 0.1 mm 2 mps 604 mmHg 84%
20:00 +17°C° 0.1 mm 2 mps 605 mmHg 84%
21:00 +16°C° 0 mm 2 mps 604 mmHg 85%
22:00 +16°C° 0 mm 2 mps 604 mmHg 85%
23:00 +16°C° 0 mm 2 mps 604 mmHg 86%

Tomorrow, 1 November, Sunday

Time Temperature Precipitation Wind Pressure Humidity
00:00 +15°C° 0 mm 2 mps 603 mmHg 87%
01:00 +15°C° 0 mm 1 mps 603 mmHg 87%
02:00 +15°C° 0 mm 1 mps 603 mmHg 88%
03:00 +14°C° 0 mm 1 mps 603 mmHg 89%
04:00 +14°C° 0 mm 1 mps 603 mmHg 89%
05:00 +14°C° 0 mm 1 mps 603 mmHg 89%
06:00 +15°C° 0 mm 1 mps 604 mmHg 83%
07:00 +17°C° 0 mm 2 mps 605 mmHg 77%
08:00 +19°C° 0 mm 2 mps 606 mmHg 70%
09:00 +22°C° 0 mm 1 mps 607 mmHg 63%
10:00 +23°C° 0 mm 1 mps 607 mmHg 57%
11:00 +25°C° 0 mm 1 mps 607 mmHg 50%
12:00 +25°C° 0.1 mm 1 mps 606 mmHg 51%
13:00 +25°C° 0.1 mm 2 mps 605 mmHg 52%
14:00 +25°C° 0.1 mm 2 mps 605 mmHg 53%
15:00 +23°C° 0.2 mm 2 mps 604 mmHg 59%
16:00 +21°C° 0.2 mm 2 mps 604 mmHg 65%
17:00 +19°C° 0.2 mm 2 mps 604 mmHg 72%
18:00 +19°C° 0 mm 2 mps 604 mmHg 74%
19:00 +18°C° 0 mm 2 mps 604 mmHg 76%
20:00 +17°C° 0 mm 2 mps 605 mmHg 78%
21:00 +17°C° 0 mm 2 mps 605 mmHg 78%
22:00 +17°C° 0 mm 2 mps 605 mmHg 77%
23:00 +16°C° 0 mm 2 mps 605 mmHg 77%

Day after tomorrow, 2 November, Monday

Time Temperature Precipitation Wind Pressure Humidity
00:00 +16°C° 0 mm 2 mps 604 mmHg 79%
01:00 +15°C° 0 mm 2 mps 604 mmHg 80%
02:00 +14°C° 0 mm 1 mps 603 mmHg 82%
03:00 +14°C° 0 mm 1 mps 603 mmHg 83%
04:00 +14°C° 0 mm 1 mps 603 mmHg 83%
05:00 +13°C° 0 mm 1 mps 603 mmHg 84%
06:00 +15°C° 0 mm 1 mps 604 mmHg 78%
07:00 +18°C° 0 mm 1 mps 606 mmHg 71%
08:00 +20°C° 0 mm 1 mps 607 mmHg 65%
09:00 +22°C° 0 mm 1 mps 607 mmHg 60%
10:00 +23°C° 0 mm 1 mps 607 mmHg 54%
11:00 +25°C° 0 mm 1 mps 607 mmHg 48%
12:00 +25°C° 0 mm 1 mps 606 mmHg 49%
13:00 +25°C° 0 mm 1 mps 606 mmHg 50%
14:00 +25°C° 0 mm 1 mps 605 mmHg 50%
15:00 +24°C° 0.1 mm 1 mps 605 mmHg 56%
16:00 +22°C° 0.1 mm 1 mps 605 mmHg 62%
17:00 +21°C° 0.1 mm 1 mps 604 mmHg 68%
18:00 +20°C° 0 mm 1 mps 605 mmHg 70%
19:00 +18°C° 0 mm 2 mps 605 mmHg 72%
20:00 +17°C° 0 mm 2 mps 605 mmHg 74%
21:00 +17°C° 0 mm 2 mps 605 mmHg 76%
22:00 +16°C° 0 mm 2 mps 605 mmHg 78%
23:00 +16°C° 0 mm 2 mps 604 mmHg 80%

3 November, Tuesday

Time Temperature Precipitation Wind Pressure Humidity
00:00 +15°C° 0 mm 1 mps 604 mmHg 81%
01:00 +15°C° 0 mm 1 mps 604 mmHg 82%
02:00 +14°C° 0 mm 0 mps 604 mmHg 83%
03:00 +13°C° 0 mm 0 mps 604 mmHg 84%
04:00 +13°C° 0 mm 0 mps 604 mmHg 85%
05:00 +13°C° 0 mm 0 mps 604 mmHg 85%
06:00 +15°C° 0 mm 0 mps 605 mmHg 79%
07:00 +19°C° 0 mm 1 mps 606 mmHg 73%
08:00 +21°C° 0 mm 1 mps 607 mmHg 67%
09:00 +22°C° 0 mm 1 mps 607 mmHg 63%
10:00 +23°C° 0 mm 1 mps 607 mmHg 59%
11:00 +24°C° 0 mm 2 mps 607 mmHg 55%
12:00 +24°C° 0.8 mm 2 mps 606 mmHg 58%
13:00 +24°C° 0.8 mm 2 mps 605 mmHg 61%
14:00 +23°C° 0.8 mm 2 mps 605 mmHg 64%
15:00 +22°C° 1.2 mm 1 mps 605 mmHg 69%
16:00 +22°C° 1.2 mm 1 mps 604 mmHg 74%
17:00 +21°C° 1.2 mm 1 mps 604 mmHg 79%
18:00 +20°C° 0.3 mm 1 mps 604 mmHg 82%
19:00 +19°C° 0.3 mm 1 mps 605 mmHg 84%
20:00 +18°C° 0.3 mm 1 mps 605 mmHg 87%
21:00 +18°C° 0 mm 1 mps 605 mmHg 88%
22:00 +16°C° 0 mm 1 mps 605 mmHg 89%
23:00 +15°C° 0 mm 0 mps 604 mmHg 89%

4 November, Wednesday

Time Temperature Precipitation Wind Pressure Humidity
00:00 +16°C° 0 mm 1 mps 604 mmHg 90%
01:00 +16°C° 0 mm 1 mps 604 mmHg 91%
02:00 +15°C° 0 mm 1 mps 604 mmHg 92%
03:00 +15°C° 0 mm 1 mps 604 mmHg 92%
04:00 +15°C° 0 mm 1 mps 604 mmHg 92%
05:00 +14°C° 0 mm 0 mps 604 mmHg 93%
06:00 +16°C° 0 mm 1 mps 605 mmHg 87%
07:00 +19°C° 0 mm 1 mps 606 mmHg 82%
08:00 +20°C° 0 mm 1 mps 607 mmHg 77%
09:00 +22°C° 0.3 mm 1 mps 607 mmHg 71%
10:00 +23°C° 0.3 mm 2 mps 607 mmHg 65%
11:00 +25°C° 0.3 mm 2 mps 607 mmHg 60%
12:00 +24°C° 1.4 mm 2 mps 606 mmHg 62%
13:00 +24°C° 1.4 mm 2 mps 605 mmHg 63%
14:00 +24°C° 1.4 mm 3 mps 604 mmHg 65%
15:00 +23°C° 1.6 mm 2 mps 604 mmHg 70%
16:00 +21°C° 1.6 mm 2 mps 604 mmHg 76%
17:00 +21°C° 1.6 mm 1 mps 604 mmHg 81%
18:00 +20°C° 0.3 mm 1 mps 604 mmHg 83%
19:00 +19°C° 0.3 mm 1 mps 604 mmHg 85%
20:00 +18°C° 0.3 mm 1 mps 604 mmHg 87%
21:00 +18°C° 0.1 mm 1 mps 604 mmHg 88%
22:00 +18°C° 0.1 mm 1 mps 604 mmHg 88%
23:00 +18°C° 0.1 mm 1 mps 604 mmHg 89%

5 November, Thursday

Time Temperature Precipitation Wind Pressure Humidity
00:00 +16°C° 0 mm 1 mps 604 mmHg 90%
01:00 +16°C° 0 mm 1 mps 603 mmHg 91%
02:00 +15°C° 0 mm 1 mps 603 mmHg 91%
03:00 +15°C° 0 mm 1 mps 603 mmHg 92%
04:00 +15°C° 0 mm 1 mps 603 mmHg 92%
05:00 +14°C° 0 mm 0 mps 603 mmHg 92%
06:00 +18°C° 0 mm 1 mps 604 mmHg 86%
07:00 +19°C° 0 mm 1 mps 605 mmHg 81%
08:00 +21°C° 0 mm 1 mps 606 mmHg 75%
09:00 +22°C° 0.2 mm 1 mps 606 mmHg 69%
10:00 +24°C° 0.2 mm 2 mps 606 mmHg 63%
11:00 +25°C° 0.2 mm 2 mps 606 mmHg 57%
12:00 +25°C° 1 mm 3 mps 605 mmHg 59%
13:00 +24°C° 1 mm 3 mps 605 mmHg 61%
14:00 +24°C° 1 mm 3 mps 604 mmHg 63%
15:00 +23°C° 1.7 mm 2 mps 604 mmHg 69%
16:00 +21°C° 1.7 mm 2 mps 603 mmHg 75%
17:00 +21°C° 1.7 mm 1 mps 603 mmHg 82%
18:00 +20°C° 0.3 mm 1 mps 603 mmHg 84%
19:00 +19°C° 0.3 mm 1 mps 603 mmHg 85%
20:00 +18°C° 0.3 mm 1 mps 604 mmHg 87%
21:00 +18°C° 0 mm 1 mps 604 mmHg 88%
22:00 +16°C° 0 mm 1 mps 603 mmHg 88%
23:00 +15°C° 0 mm 0 mps 603 mmHg 89%
Show more